DIRECTV 15 (40663 NORAD) Tracking and Keplerian Element Data

This shows tracking and keplerian element data for the satellite.

Feedback or suggestion? Click here.




ElementValue
Catalog40663
NameDIRECTV 15
Epoch Orbit1583
Epoch Day261.60604942
Epoch Year2019
RAAN125.965
Inclination0.0266
Eccentricity0.0003673
Argument of Perigee64.9813
Mean Anonmoly283.5156
Mean Motion1.00239603
Decay Rate-1.13E-06
L11 40663U 15026A 19261.60604942 -.00000113 00000-0 00000+0 0 9998
L22 40663 0.0266 125.9650 0003673 64.9813 283.5156 1.00239603 15834

Live tracking and technical data element details for DIRECTV 15 (NORAD 40663). DIRECTV 15 can be tracked NOW for your location showing map with azimuth and elevation plus other details from your city location.

Track the satellite on the map from your city or location and see movement details for azimuth, elevation, latitude, longitude, range, height, and movement on the map or in text.







IsCatalogInMostPopularTable: catalog: 40663, numindb: 319
Update: records affected: 1



GetName: 40663 DIRECTV 15

Hit Count: updated at: Thu, 19 Sep 2019 16:38:00 GMT